Weather History for Florence, SC

Change the Weather History Date:

Monday, March 4, 2013

  Actual Average Record
Temperature  
Mean Temperature 41 °F 52 °F  
Max Temperature 56 °F 64 °F 87 °F (1976)
Min Temperature 25 °F 41 °F 18 °F (2009)
Degree Days  
Heating Degree Days 24 13  
Month to date heating degree days 92 53  
Since 1 July heating degree days 1839 2119  
Cooling Degree Days 0 0  
Month to date cooling degree days 0 0  
Year to date cooling degree days 21 6  
Moisture  
Dew Point 18 °F    
Average Humidity 47    
Maximum Humidity 75    
Minimum Humidity 18    
Precipitation  
Precipitation 0.00 in 0.11 in 1.97 in (1966)
Month to date precipitation 0.00 0.44  
Year to date precipitation 6.52 6.59  
Sea Level Pressure  
Sea Level Pressure 30.09 in    
Wind  
Wind Speed 6 mph (WNW)    
Max Wind Speed 17 mph    
Max Gust Speed 24 mph    
Visibility 10 miles    
Events      
T = Trace of Precipitation, MM = Missing Value Source: NWS Daily Summary

Daily Weather History Graph

Daily Weather History Graph

Search for Another Location

Airport:

Trip Planner

Search our weather history database for the weather conditions in past years. The results will help you decide how hot, cold, wet, or windy it might be!

Date:

Astronomy

Mar. 04, 2013 Rise Set
Actual Time 6:43 AM EST 6:17 PM EST
Civil Twilight 6:18 AM EST 6:43 PM EST
Nautical Twilight 5:49 AM EST 7:12 PM EST
Astronomical Twilight 5:20 AM EST 7:41 PM EST
Moon 12:40 AM EST (3/4) 11:09 AM EST (3/4)
Length of Visible Light 12h 24m
Length of Day
11h 34m
Waning Gibbous, 52% of the Moon is Illuminated
Mar 4
Waning Gibbous
Mar 4
Last Quarter
Mar 11
New
Mar 19
First Quarter
Mar 27
Full

Hourly Weather History & Observations

Time (EST) Temp. Windchill Dew Point Humidity Pressure Visibility Wind Dir Wind Speed Gust Speed Precip Events Conditions
12:53 AM 34.0 °F 28.8 °F 19.0 °F 54% 30.01 in 10.0 mi NNW 5.8 mph - N/A   Clear
1:53 AM 30.9 °F - 19.0 °F 61% 30.03 in 10.0 mi Calm Calm - N/A   Clear
2:53 AM 28.9 °F 25.2 °F 19.0 °F 67% 30.04 in 10.0 mi NW 3.5 mph - N/A   Clear
3:53 AM 27.0 °F 23.0 °F 19.0 °F 72% 30.06 in 10.0 mi NW 3.5 mph - N/A   Clear
4:53 AM 28.9 °F 23.9 °F 18.0 °F 64% 30.08 in 10.0 mi NW 4.6 mph - N/A   Clear
5:53 AM 28.0 °F 21.7 °F 18.0 °F 66% 30.11 in 10.0 mi WNW 5.8 mph - N/A   Clear
6:53 AM 26.1 °F 19.4 °F 18.0 °F 71% 30.13 in 10.0 mi West 5.8 mph - N/A   Clear
7:53 AM 33.1 °F 25.5 °F 19.9 °F 59% 30.14 in 10.0 mi WNW 9.2 mph - N/A   Clear
8:53 AM 37.9 °F 32.7 °F 19.0 °F 47% 30.16 in 10.0 mi Variable 6.9 mph - N/A   Clear
9:53 AM 41.0 °F 35.8 °F 16.0 °F 36% 30.16 in 10.0 mi WNW 8.1 mph 17.3 mph N/A   Clear
10:53 AM 43.0 °F 37.2 °F 16.0 °F 34% 30.15 in 10.0 mi WNW 10.4 mph 16.1 mph N/A   Clear
11:53 AM 46.9 °F - 14.0 °F 27% 30.14 in 10.0 mi West 12.7 mph 20.7 mph N/A   Clear
12:53 PM 50.0 °F - 14.0 °F 24% 30.11 in 10.0 mi West 12.7 mph 19.6 mph N/A   Clear
1:53 PM 51.1 °F - 12.9 °F 22% 30.08 in 10.0 mi WNW 9.2 mph 19.6 mph N/A   Clear
2:53 PM 53.1 °F - 12.0 °F 20% 30.06 in 10.0 mi WNW 11.5 mph 16.1 mph N/A   Clear
3:53 PM 55.0 °F - 12.0 °F 18% 30.06 in 10.0 mi Variable 6.9 mph - N/A   Clear
4:53 PM 55.0 °F - 12.0 °F 18% 30.06 in 10.0 mi NNW 6.9 mph - N/A   Clear
5:53 PM 53.1 °F - 14.0 °F 21% 30.07 in 10.0 mi West 5.8 mph - N/A   Clear
6:53 PM 45.0 °F 43.5 °F 19.0 °F 36% 30.09 in 10.0 mi WSW 3.5 mph - N/A   Clear
7:53 PM 43.0 °F - 19.9 °F 40% 30.10 in 10.0 mi Calm Calm - N/A   Clear
8:53 PM 37.9 °F - 25.0 °F 60% 30.11 in 10.0 mi Calm Calm - N/A   Clear
9:53 PM 37.9 °F - 25.0 °F 60% 30.11 in 10.0 mi Calm Calm - N/A   Clear
10:53 PM 37.0 °F - 26.1 °F 65% 30.10 in 10.0 mi Calm Calm - N/A   Clear
11:53 PM 37.9 °F - 27.0 °F 65% 30.10 in 10.0 mi Calm Calm - N/A   Clear